Regional Weather Roundup
Issued by NWS Upton, NY

Current Version | Previous Version | Text Only | Print | Product List | Glossary On
Versions: 1 2 3 4 5 6 7 8 9 10 11 12 13 14 15 16 17 18 19 20 21 22 23 24 25 26 27 28 29 30 31 32 33 34 35 36 37 38 39 40 41 42 43 44 45 46 47
000
ASUS41 KOKX 200005
RWROKX
REGIONAL WEATHER ROUNDUP
NATIONAL WEATHER SERVICE NEW YORK NY
800 PM EDT FRI SEP 19 2014

NOTE: "FAIR" INDICATES FEW OR NO CLOUDS BELOW 12,000 FEET WITH NO
SIGNIFICANT WEATHER AND/OR OBSTRUCTIONS TO VISIBILITY.

NYZ071-072-176-178-NJZ106-104-200100-
NEW YORK CITY METRO AREA


CITY           SKY/WX    TMP DP  RH WIND       PRES   REMARKS
CENTRAL PARK   MOCLDY    61  46  57 VRB5      30.39R
LAGUARDIA APRT MOCLDY    62  47  57 SE10      30.36R
KENNEDY INTL   PTCLDY    59  47  64 E9        30.37R
NEWARK/LIBERTY MOCLDY    62  49  62 E8        30.36R
BRNX BOT. GARD   N/A     59  46  63 E3        30.36F
TETERBORO      CLOUDY    62  46  55 SE9       30.35R
$$

NYZ177-179-078>081-200100-
LONG ISLAND NEW YORK

CITY           SKY/WX    TMP DP  RH WIND       PRES   REMARKS
FARMINGDALE    CLEAR     58  45  62 SE7       30.38R
ISLIP          PTCLDY    56  44  64 E3        30.37R
SHIRLEY        CLEAR     53  42  66 CALM      30.39R
WESTHAMPTON    CLEAR     53  41  63 E5        30.40R
MONTAUK POINT    N/A     55  44  66 E3        30.41R
$$

NYZ052-065-067-200100-
HUDSON VALLEY

CITY           SKY/WX    TMP DP  RH WIND       PRES   REMARKS
WHITE PLAINS   CLEAR     52  44  74 S3        30.37R
NEWBURGH       PTCLDY    57  46  67 VRB6      30.35R
MONTGOMERY     CLEAR     56  44  64 S3        30.34R
POUGHKEEPSIE   CLEAR     56  45  66 SE5       30.34R
ALBANY         PTCLDY    52  42  69 CALM      30.33R
$$

NJZ001-105-106-008-010-013-015-019>022-104-200100-
NEW JERSEY

CITY           SKY/WX    TMP DP  RH WIND       PRES   REMARKS
NEWARK/LIBERTY MOCLDY    62  49  62 E8        30.36R
TETERBORO      CLOUDY    62  46  55 SE9       30.35R
CALDWELL       CLOUDY    61  47  59 S7        30.37R
MORRISTOWN     CLEAR     57  50  77 CALM      30.37R
SOMERVILLE     CLEAR     57  49  74 CALM      30.34R
LINDEN         CLOUDY    66  52  60 SE6       30.38R
SUSSEX         CLOUDY    61  48  62 CALM      30.34R
ANDOVER          N/A     58  49  72 VRB3      30.35R
TRENTON        CLEAR     58  50  75 E6        30.35R
MILLVILLE      CLEAR     61  55  81 NE8       30.31S
ATLANTIC CITY  PTCLDY    61  56  83 E8        30.32R
WRIGHTSTOWN    PTCLDY    57  53  86 NE5       30.32R
TOMS RIVER     PTCLDY    61  54  77 CALM      30.34S
BELMAR         CLOUDY    61  50  67 E9        30.35R
$$

PAZ047>061-062-071-200100-
EASTERN PENNSYLVANIA

CITY           SKY/WX    TMP DP  RH WIND       PRES   REMARKS
PHILADELPHIA   PTCLDY    62  54  74 E13       30.33R
ALLENTOWN      CLEAR     61  49  64 SE6       30.33R
SCRANTON       MOCLDY    61  47  59 S9G17     30.29R
$$

CTZ002-004>006-009-010-012-RIZ004-006-007-MAZ004-011-015-200100-
SOUTHERN NEW ENGLAND
 IN CT

CITY           SKY/WX    TMP DP  RH WIND       PRES   REMARKS
BRADLEY INTL   CLEAR     57  39  51 CALM      30.37R
HARTFORD       CLEAR     55  42  61 S6        30.38R
DANBURY        CLEAR     53  44  71 SE5       30.38R
WTRBRY/OXFORD  CLEAR     52  39  62 S7        30.39R
BRIDGEPORT     CLEAR     60  43  53 SE8       30.38R
MERIDEN        CLEAR     52  42  69 CALM      30.38R
NEW HAVEN      CLEAR     59  42  53 SE5       30.39R
CHESTER        FAIR      54  43  66 CALM      30.39R
GROTON         CLEAR     53  42  66 E7        30.40R
WILLIMANTIC    CLEAR     53  38  56 CALM      30.40R

 IN RI

CITY           SKY/WX    TMP DP  RH WIND       PRES   REMARKS
PROVIDENCE     CLEAR     52  38  58 E9        30.43R
BLOCK ISLAND   PTCLDY    55  39  54 E8        30.40R
WESTERLY       CLEAR     52  41  66 NE5       30.41R

 IN MA

CITY           SKY/WX    TMP DP  RH WIND       PRES   REMARKS
BOSTON         CLEAR     51  33  50 E8        30.43R
WORCESTER      CLEAR     48  32  53 E9        30.40R
WESTFIELD      CLEAR     49  42  77 CALM      30.38R
PROVINCETOWN   CLEAR     43  32  65 CALM      30.44R
NANTUCKET      CLEAR     48  36  63 NE6       30.41R
$$

ANZ330-335-338-340-345-350-353-355-200100-
COASTAL MARINE OBSERVATIONS


STATION/POSITION TIME  SKY/WX   TEMP    WIND        PRES    VSBY  WAVE
                                AIR SEA DIR/SP/G                  HT/PER
                 (UTC)          (F)     (DEG/KT/KT) (MB)    (MI)  (FT/S)
NY HARB ENTRANCE 0000            62 70  100/ 14/ 16 1028.1          3/ 7
4S FIRE IS       0000               69                N/A           4/ 6
20S FIRE ISLAND  0000            61 67   90/ 14/ 16 1028.4          5/ 7
23SW MTP         0000                                 N/A           4/ 6
HUDSON CANYON    0000            64 72   80/ 16/ 17 1026.8          6/ 7
EXECUTION ROCKS  0000            61 70  140/ 12/ 14   N/A
WESTERN LI SOUND 2300            62     140/ 10/ 14   N/A           1/ 4
CENTRAL LI SOUND 2300            59 70  130/ 12/ 16   N/A           1/ 2
EASTERN LI SOUND 2300            59 68  110/ 12/ 16   N/A
ROBBINS REEF     0000            61     110/ 12/ 14 1026.7
$$


>>>>>>>>>>>>>>>>>>>>>>>>>>>> KEY <<<<<<<<<<<<<<<<<<<<<<<<<<<
>                                                          <
>     SKY/WX - SKY CONDITION/PRESENT WEATHER               <
>     TMP    - TEMPERATURE IN FAHRENHEIT                   <
>     DP     - DEWPOINT IN FAHRENHEIT                      <
>     RH     - RELATIVE HUMIDITY IN PERCENT                <
>     WIND   - DIRECTION AND SPEED IN MPH                  <
>     PRES   - MEAN SEA LEVEL PRESSURE IN INCHES OF HG     <
>     WCI    - WIND CHILL INDEX                            <
>     VSB    - VISIBILITY IN MILES                         <
>     HX     - HEAT INDEX                                  <
>     TC     - TEMPERATURE IN CELSIUS                      <
>     VRB    - VARIABLE WIND DIRECTION                     <
>                                                          <
>>>>>>>>>>>>>>>>>>>>>>>>>>>> KEY <<<<<<<<<<<<<<<<<<<<<<<<<<<





USA.gov is the U.S. government's official web portal to all federal, state and local government web resources and services.